Time,TemperatureF,DewpointF,PressureIn,WindDirection,WindDirectionDegrees,WindSpeedMPH,WindSpeedGustMPH,Humidity,HourlyPrecipIn,Conditions,Clouds,dailyrainin,SolarRadiationWatts/m^2,SoftwareType,DateUTC
2013-08-24 00:00:00,63.4,57.1,29.87,N/A,-737280,0.0,-999.0,80,0.00,,,0.03,0,Wunderground v.1.15,2013-08-24 07:00:00,
2013-08-24 00:02:00,63.7,57.0,29.87,ENE,65,0.0,0.0,78,0.00,,,0.00,0,weatherlink.com 1.10,2013-08-24 07:02:00,
2013-08-24 00:05:00,63.4,57.1,29.87,N/A,-737280,0.0,-999.0,80,0.00,,,0.03,0,Wunderground v.1.15,2013-08-24 07:05:00,
2013-08-24 00:10:00,63.4,57.1,29.87,N/A,-737280,0.0,-999.0,80,0.00,,,0.03,0,Wunderground v.1.15,2013-08-24 07:10:00,
2013-08-24 00:15:00,63.4,57.1,29.87,N/A,-737280,0.0,-999.0,80,0.00,,,0.03,0,Wunderground v.1.15,2013-08-24 07:15:00,
2013-08-24 00:17:00,63.1,57.0,29.87,ENE,65,0.0,0.0,80,0.00,,,0.00,0,weatherlink.com 1.10,2013-08-24 07:17:00,
2013-08-24 00:20:00,63.4,57.1,29.87,N/A,-737280,0.0,-999.0,80,0.00,,,0.03,0,Wunderground v.1.15,2013-08-24 07:20:00,
2013-08-24 00:25:00,62.4,57.2,29.87,WNW,293,2.0,-999.0,83,0.00,,,0.03,0,Wunderground v.1.15,2013-08-24 07:25:00,
2013-08-24 00:30:00,62.4,57.2,29.87,WNW,293,2.0,-999.0,83,0.00,,,0.03,0,Wunderground v.1.15,2013-08-24 07:30:00,
2013-08-24 00:32:00,62.0,57.0,29.87,WNW,294,3.0,5.0,83,0.00,,,0.00,0,weatherlink.com 1.10,2013-08-24 07:32:00,
2013-08-24 00:35:00,62.4,57.2,29.87,WNW,293,2.0,-999.0,83,0.00,,,0.03,0,Wunderground v.1.15,2013-08-24 07:35:00,
2013-08-24 00:40:00,61.7,57.1,29.87,NW,315,2.0,-999.0,85,0.00,,,0.03,0,Wunderground v.1.15,2013-08-24 07:40:00,
2013-08-24 00:45:00,61.7,57.1,29.87,NW,315,2.0,-999.0,85,0.00,,,0.03,0,Wunderground v.1.15,2013-08-24 07:45:00,
2013-08-24 00:47:00,61.5,57.0,29.87,NW,304,0.0,5.0,85,0.00,,,0.00,0,weatherlink.com 1.10,2013-08-24 07:47:00,
2013-08-24 00:50:00,61.7,57.1,29.87,NW,315,2.0,-999.0,85,0.00,,,0.03,0,Wunderground v.1.15,2013-08-24 07:50:00,
2013-08-24 00:55:00,61.3,57.1,29.87,NW,315,1.0,-999.0,86,0.00,,,0.03,0,Wunderground v.1.15,2013-08-24 07:55:00,
2013-08-24 01:00:00,61.3,57.1,29.87,NW,315,1.0,-999.0,86,0.00,,,0.03,0,Wunderground v.1.15,2013-08-24 08:00:00,
2013-08-24 01:02:00,61.1,57.0,29.87,NW,313,1.0,3.0,86,0.00,,,0.00,0,weatherlink.com 1.10,2013-08-24 08:02:00,
2013-08-24 01:05:00,61.3,57.1,29.87,NW,315,1.0,-999.0,86,0.00,,,0.03,0,Wunderground v.1.15,2013-08-24 08:05:00,
2013-08-24 01:10:00,61.1,56.9,29.87,NW,315,0.0,-999.0,86,0.00,,,0.03,0,Wunderground v.1.15,2013-08-24 08:10:00,
2013-08-24 01:15:00,61.1,56.9,29.87,NW,315,0.0,-999.0,86,0.00,,,0.03,0,Wunderground v.1.15,2013-08-24 08:15:00,
2013-08-24 01:17:00,61.0,57.0,29.87,NW,313,0.0,0.0,86,0.00,,,0.00,0,weatherlink.com 1.10,2013-08-24 08:17:00,
2013-08-24 01:20:00,61.1,56.9,29.87,NW,315,0.0,-999.0,86,0.00,,,0.03,0,Wunderground v.1.15,2013-08-24 08:20:00,
2013-08-24 01:25:00,60.9,57.0,29.87,NW,315,0.0,-999.0,87,0.00,,,0.03,0,Wunderground v.1.15,2013-08-24 08:25:00,
2013-08-24 01:30:00,60.9,57.0,29.87,NW,315,0.0,-999.0,87,0.00,,,0.03,0,Wunderground v.1.15,2013-08-24 08:30:00,
2013-08-24 01:32:00,60.8,57.0,29.87,NW,313,0.0,0.0,87,0.00,,,0.00,0,weatherlink.com 1.10,2013-08-24 08:32:00,
2013-08-24 01:35:00,60.9,57.0,29.87,NW,315,0.0,-999.0,87,0.00,,,0.03,0,Wunderground v.1.15,2013-08-24 08:35:00,
2013-08-24 01:40:00,60.8,56.9,29.87,N/A,-737280,0.0,-999.0,87,0.00,,,0.03,0,Wunderground v.1.15,2013-08-24 08:40:00,
2013-08-24 01:45:00,60.8,56.9,29.87,N/A,-737280,0.0,-999.0,87,0.00,,,0.03,0,Wunderground v.1.15,2013-08-24 08:45:00,
2013-08-24 01:47:00,60.7,57.0,29.87,NW,313,0.0,0.0,87,0.00,,,0.00,0,weatherlink.com 1.10,2013-08-24 08:47:00,
2013-08-24 01:50:00,60.8,56.9,29.87,N/A,-737280,0.0,-999.0,87,0.00,,,0.03,0,Wunderground v.1.15,2013-08-24 08:50:00,
2013-08-24 01:55:00,60.4,56.5,29.88,N/A,-737280,0.0,-999.0,87,0.00,,,0.03,0,Wunderground v.1.15,2013-08-24 08:55:00,
2013-08-24 02:00:00,60.4,56.5,29.88,N/A,-737280,0.0,-999.0,87,0.00,,,0.03,0,Wunderground v.1.15,2013-08-24 09:00:00,
2013-08-24 02:02:00,60.3,57.0,29.88,NW,313,0.0,0.0,88,0.00,,,0.00,0,weatherlink.com 1.10,2013-08-24 09:02:00,
2013-08-24 02:05:00,60.4,56.5,29.88,N/A,-737280,0.0,-999.0,87,0.00,,,0.03,0,Wunderground v.1.15,2013-08-24 09:05:00,
2013-08-24 02:10:00,60.1,56.5,29.88,N/A,-737280,0.0,-999.0,88,0.00,,,0.03,0,Wunderground v.1.15,2013-08-24 09:10:00,
2013-08-24 02:15:00,60.1,56.5,29.88,N/A,-737280,0.0,-999.0,88,0.00,,,0.03,0,Wunderground v.1.15,2013-08-24 09:15:00,
2013-08-24 02:17:00,60.0,57.0,29.88,NW,313,0.0,0.0,88,0.00,,,0.00,0,weatherlink.com 1.10,2013-08-24 09:17:00,
2013-08-24 02:20:00,60.1,56.5,29.88,N/A,-737280,0.0,-999.0,88,0.00,,,0.03,0,Wunderground v.1.15,2013-08-24 09:20:00,
2013-08-24 02:25:00,60.1,56.8,29.88,N/A,-737280,0.0,-999.0,89,0.00,,,0.03,0,Wunderground v.1.15,2013-08-24 09:25:00,
2013-08-24 02:30:00,60.1,56.8,29.88,N/A,-737280,0.0,-999.0,89,0.00,,,0.03,0,Wunderground v.1.15,2013-08-24 09:30:00,
2013-08-24 02:32:00,60.1,57.0,29.88,NW,313,0.0,0.0,89,0.00,,,0.00,0,weatherlink.com 1.10,2013-08-24 09:32:00,
2013-08-24 02:35:00,60.1,56.8,29.88,N/A,-737280,0.0,-999.0,89,0.00,,,0.03,0,Wunderground v.1.15,2013-08-24 09:35:00,
2013-08-24 02:40:00,60.1,56.8,29.88,N/A,-737280,0.0,-999.0,89,0.00,,,0.03,0,Wunderground v.1.15,2013-08-24 09:40:00,
2013-08-24 02:45:00,60.1,56.8,29.88,N/A,-737280,0.0,-999.0,89,0.00,,,0.03,0,Wunderground v.1.15,2013-08-24 09:45:00,
2013-08-24 02:47:00,60.2,57.0,29.88,NW,313,0.0,0.0,89,0.00,,,0.00,0,weatherlink.com 1.10,2013-08-24 09:47:00,
2013-08-24 02:50:00,60.1,56.8,29.88,N/A,-737280,0.0,-999.0,89,0.00,,,0.03,0,Wunderground v.1.15,2013-08-24 09:50:00,
2013-08-24 02:55:00,60.2,56.9,29.88,N/A,-737280,0.0,-999.0,89,0.00,,,0.03,0,Wunderground v.1.15,2013-08-24 09:55:00,
2013-08-24 03:00:00,60.2,56.9,29.88,N/A,-737280,0.0,-999.0,89,0.00,,,0.03,0,Wunderground v.1.15,2013-08-24 10:00:00,
2013-08-24 03:02:00,60.2,57.0,29.88,NW,313,0.0,0.0,89,0.00,,,0.00,0,weatherlink.com 1.10,2013-08-24 10:02:00,
2013-08-24 03:05:00,60.2,56.9,29.88,N/A,-737280,0.0,-999.0,89,0.00,,,0.03,0,Wunderground v.1.15,2013-08-24 10:05:00,
2013-08-24 03:10:00,60.2,56.9,29.88,N/A,-737280,0.0,-999.0,89,0.00,,,0.03,0,Wunderground v.1.15,2013-08-24 10:10:00,
2013-08-24 03:15:00,60.2,56.9,29.88,N/A,-737280,0.0,-999.0,89,0.00,,,0.03,0,Wunderground v.1.15,2013-08-24 10:15:00,
2013-08-24 03:17:00,60.2,57.0,29.88,NW,313,0.0,0.0,89,0.00,,,0.00,0,weatherlink.com 1.10,2013-08-24 10:17:00,
2013-08-24 03:20:00,60.2,56.9,29.88,N/A,-737280,0.0,-999.0,89,0.00,,,0.03,0,Wunderground v.1.15,2013-08-24 10:20:00,
2013-08-24 03:25:00,60.3,57.0,29.88,N/A,-737280,0.0,-999.0,89,0.00,,,0.03,0,Wunderground v.1.15,2013-08-24 10:25:00,
2013-08-24 03:30:00,60.3,57.0,29.88,N/A,-737280,0.0,-999.0,89,0.00,,,0.03,0,Wunderground v.1.15,2013-08-24 10:30:00,
2013-08-24 03:32:00,60.3,57.0,29.88,NW,313,0.0,0.0,89,0.00,,,0.00,0,weatherlink.com 1.10,2013-08-24 10:32:00,
2013-08-24 03:35:00,60.3,57.0,29.88,N/A,-737280,0.0,-999.0,89,0.00,,,0.03,0,Wunderground v.1.15,2013-08-24 10:35:00,
2013-08-24 03:40:00,60.3,57.0,29.88,N/A,-737280,0.0,-999.0,89,0.00,,,0.03,0,Wunderground v.1.15,2013-08-24 10:40:00,
2013-08-24 03:45:00,60.3,57.0,29.88,N/A,-737280,0.0,-999.0,89,0.00,,,0.03,0,Wunderground v.1.15,2013-08-24 10:45:00,
2013-08-24 03:47:00,60.3,57.0,29.88,NW,313,0.0,0.0,89,0.00,,,0.00,0,weatherlink.com 1.10,2013-08-24 10:47:00,
2013-08-24 03:50:00,60.3,57.0,29.88,N/A,-737280,0.0,-999.0,89,0.00,,,0.03,0,Wunderground v.1.15,2013-08-24 10:50:00,
2013-08-24 03:55:00,60.4,57.1,29.88,N/A,-737280,0.0,-999.0,89,0.00,,,0.03,0,Wunderground v.1.15,2013-08-24 10:55:00,
2013-08-24 04:00:00,60.4,57.1,29.88,N/A,-737280,0.0,-999.0,89,0.00,,,0.03,0,Wunderground v.1.15,2013-08-24 11:00:00,
2013-08-24 04:02:00,60.4,57.0,29.88,NW,313,0.0,0.0,89,0.00,,,0.00,0,weatherlink.com 1.10,2013-08-24 11:02:00,
2013-08-24 04:05:00,60.4,57.1,29.88,N/A,-737280,0.0,-999.0,89,0.00,,,0.03,0,Wunderground v.1.15,2013-08-24 11:05:00,
2013-08-24 04:10:00,60.4,57.1,29.87,N/A,-737280,0.0,-999.0,89,0.00,,,0.03,0,Wunderground v.1.15,2013-08-24 11:10:00,
2013-08-24 04:15:00,60.4,57.1,29.87,N/A,-737280,0.0,-999.0,89,0.00,,,0.03,0,Wunderground v.1.15,2013-08-24 11:15:00,
2013-08-24 04:17:00,60.3,57.0,29.87,NW,313,0.0,0.0,89,0.00,,,0.00,0,weatherlink.com 1.10,2013-08-24 11:17:00,
2013-08-24 04:20:00,60.4,57.1,29.87,N/A,-737280,0.0,-999.0,89,0.00,,,0.03,0,Wunderground v.1.15,2013-08-24 11:20:00,
2013-08-24 04:25:00,60.4,57.1,29.87,N/A,-737280,0.0,-999.0,89,0.00,,,0.03,0,Wunderground v.1.15,2013-08-24 11:25:00,
2013-08-24 04:30:00,60.4,57.1,29.87,N/A,-737280,0.0,-999.0,89,0.00,,,0.03,0,Wunderground v.1.15,2013-08-24 11:30:00,
2013-08-24 04:32:00,60.4,57.0,29.87,NW,313,0.0,0.0,89,0.00,,,0.00,0,weatherlink.com 1.10,2013-08-24 11:32:00,
2013-08-24 04:35:00,60.4,57.1,29.87,N/A,-737280,0.0,-999.0,89,0.00,,,0.03,0,Wunderground v.1.15,2013-08-24 11:35:00,
2013-08-24 04:40:00,60.3,57.4,29.88,N/A,-737280,0.0,-999.0,90,0.00,,,0.03,0,Wunderground v.1.15,2013-08-24 11:40:00,
2013-08-24 04:45:00,60.3,57.4,29.88,N/A,-737280,0.0,-999.0,90,0.00,,,0.03,0,Wunderground v.1.15,2013-08-24 11:45:00,
2013-08-24 04:47:00,60.1,57.0,29.88,NW,313,0.0,0.0,90,0.00,,,0.00,0,weatherlink.com 1.10,2013-08-24 11:47:00,
2013-08-24 04:50:00,60.3,57.4,29.88,N/A,-737280,0.0,-999.0,90,0.00,,,0.03,0,Wunderground v.1.15,2013-08-24 11:50:00,
2013-08-24 04:55:00,60.1,57.5,29.88,N/A,-737280,0.0,-999.0,91,0.00,,,0.03,0,Wunderground v.1.15,2013-08-24 11:55:00,
2013-08-24 05:00:00,60.1,57.5,29.88,N/A,-737280,0.0,-999.0,91,0.00,,,0.03,0,Wunderground v.1.15,2013-08-24 12:00:00,
2013-08-24 05:02:00,60.1,58.0,29.88,NW,313,0.0,0.0,91,0.00,,,0.00,0,weatherlink.com 1.10,2013-08-24 12:02:00,
2013-08-24 05:05:00,60.1,57.5,29.88,N/A,-737280,0.0,-999.0,91,0.00,,,0.03,0,Wunderground v.1.15,2013-08-24 12:05:00,
2013-08-24 05:10:00,60.1,57.5,29.88,N/A,-737280,0.0,-999.0,91,0.00,,,0.03,0,Wunderground v.1.15,2013-08-24 12:10:00,
2013-08-24 05:15:00,60.1,57.5,29.88,N/A,-737280,0.0,-999.0,91,0.00,,,0.03,0,Wunderground v.1.15,2013-08-24 12:15:00,
2013-08-24 05:17:00,60.1,58.0,29.88,NW,313,0.0,0.0,91,0.00,,,0.00,0,weatherlink.com 1.10,2013-08-24 12:17:00,
2013-08-24 05:20:00,60.1,57.5,29.88,N/A,-737280,0.0,-999.0,91,0.00,,,0.03,0,Wunderground v.1.15,2013-08-24 12:20:00,
2013-08-24 05:25:00,60.0,57.7,29.87,N/A,-737280,0.0,-999.0,92,0.00,,,0.03,0,Wunderground v.1.15,2013-08-24 12:25:00,
2013-08-24 05:30:00,60.0,57.7,29.87,N/A,-737280,0.0,-999.0,92,0.00,,,0.03,0,Wunderground v.1.15,2013-08-24 12:30:00,
2013-08-24 05:32:00,59.9,58.0,29.87,NW,313,0.0,0.0,92,0.00,,,0.00,0,weatherlink.com 1.10,2013-08-24 12:32:00,
2013-08-24 05:35:00,60.0,57.7,29.87,N/A,-737280,0.0,-999.0,92,0.00,,,0.03,0,Wunderground v.1.15,2013-08-24 12:35:00,
2013-08-24 05:40:00,59.7,57.7,29.87,N/A,-737280,0.0,-999.0,93,0.01,,,0.03,0,Wunderground v.1.15,2013-08-24 12:40:00,
2013-08-24 05:45:00,59.7,57.7,29.87,N/A,-737280,0.0,-999.0,93,0.01,,,0.03,0,Wunderground v.1.15,2013-08-24 12:45:00,
2013-08-24 05:47:00,59.5,58.0,29.87,NW,313,0.0,0.0,93,0.01,,,0.01,0,weatherlink.com 1.10,2013-08-24 12:47:00,
2013-08-24 05:50:00,59.7,57.7,29.87,N/A,-737280,0.0,-999.0,93,0.01,,,0.03,0,Wunderground v.1.15,2013-08-24 12:50:00,
2013-08-24 05:55:00,59.4,57.7,29.87,N/A,-737280,0.0,-999.0,94,0.01,,,0.03,0,Wunderground v.1.15,2013-08-24 12:55:00,
2013-08-24 06:00:00,59.4,57.7,29.87,N/A,-737280,0.0,-999.0,94,0.01,,,0.03,0,Wunderground v.1.15,2013-08-24 13:00:00,
2013-08-24 06:02:00,59.3,58.0,29.87,NW,313,0.0,0.0,94,0.01,,,0.01,0,weatherlink.com 1.10,2013-08-24 13:02:00,
2013-08-24 06:05:00,59.4,57.7,29.87,N/A,-737280,0.0,-999.0,94,0.01,,,0.03,0,Wunderground v.1.15,2013-08-24 13:05:00,
2013-08-24 06:10:00,59.2,57.5,29.87,N/A,-737280,0.0,-999.0,94,0.01,,,0.03,0,Wunderground v.1.15,2013-08-24 13:10:00,
2013-08-24 06:15:00,59.2,57.5,29.87,N/A,-737280,0.0,-999.0,94,0.01,,,0.03,0,Wunderground v.1.15,2013-08-24 13:15:00,
2013-08-24 06:17:00,59.2,58.0,29.87,NW,313,0.0,0.0,94,0.01,,,0.01,0,weatherlink.com 1.10,2013-08-24 13:17:00,
2013-08-24 06:20:00,59.2,57.5,29.87,N/A,-737280,0.0,-999.0,94,0.01,,,0.03,0,Wunderground v.1.15,2013-08-24 13:20:00,
2013-08-24 06:25:00,59.1,57.4,29.87,N/A,-737280,0.0,-999.0,94,0.01,,,0.03,2,Wunderground v.1.15,2013-08-24 13:25:00,
2013-08-24 06:30:00,59.1,57.4,29.87,N/A,-737280,0.0,-999.0,94,0.01,,,0.03,2,Wunderground v.1.15,2013-08-24 13:30:00,
2013-08-24 06:32:00,59.1,57.0,29.87,NW,313,0.0,0.0,94,0.01,,,0.01,9,weatherlink.com 1.10,2013-08-24 13:32:00,
2013-08-24 06:35:00,59.1,57.4,29.87,N/A,-737280,0.0,-999.0,94,0.01,,,0.03,2,Wunderground v.1.15,2013-08-24 13:35:00,
2013-08-24 06:40:00,59.2,57.8,29.87,N/A,-737280,0.0,-999.0,95,0.00,,,0.03,11,Wunderground v.1.15,2013-08-24 13:40:00,
2013-08-24 06:45:00,59.2,57.8,29.87,N/A,-737280,0.0,-999.0,95,0.00,,,0.03,11,Wunderground v.1.15,2013-08-24 13:45:00,
2013-08-24 06:47:00,59.2,58.0,29.87,NW,313,0.0,0.0,95,0.00,,,0.01,12,weatherlink.com 1.10,2013-08-24 13:47:00,
2013-08-24 06:50:00,59.2,57.8,29.87,N/A,-737280,0.0,-999.0,95,0.00,,,0.03,11,Wunderground v.1.15,2013-08-24 13:50:00,
2013-08-24 06:55:00,59.3,57.9,29.88,N/A,-737280,0.0,-999.0,95,0.00,,,0.03,18,Wunderground v.1.15,2013-08-24 13:55:00,
2013-08-24 07:00:00,59.3,57.9,29.88,N/A,-737280,0.0,-999.0,95,0.00,,,0.03,18,Wunderground v.1.15,2013-08-24 14:00:00,
2013-08-24 07:02:00,59.4,58.0,29.88,NW,313,0.0,0.0,95,0.00,,,0.01,23,weatherlink.com 1.10,2013-08-24 14:02:00,
2013-08-24 07:05:00,59.3,57.9,29.88,N/A,-737280,0.0,-999.0,95,0.00,,,0.03,18,Wunderground v.1.15,2013-08-24 14:05:00,
2013-08-24 07:10:00,59.4,58.0,29.88,N/A,-737280,0.0,-999.0,95,0.00,,,0.03,31,Wunderground v.1.15,2013-08-24 14:10:00,
2013-08-24 07:15:00,59.4,58.0,29.88,N/A,-737280,0.0,-999.0,95,0.00,,,0.03,31,Wunderground v.1.15,2013-08-24 14:15:00,
2013-08-24 07:17:00,59.4,58.0,29.88,NW,313,0.0,0.0,95,0.00,,,0.01,44,weatherlink.com 1.10,2013-08-24 14:17:00,
2013-08-24 07:20:00,59.4,58.0,29.88,N/A,-737280,0.0,-999.0,95,0.00,,,0.03,31,Wunderground v.1.15,2013-08-24 14:20:00,
2013-08-24 07:25:00,59.5,58.1,29.88,N/A,-737280,0.0,-999.0,95,0.00,,,0.03,35,Wunderground v.1.15,2013-08-24 14:25:00,
2013-08-24 07:30:00,59.5,58.1,29.88,N/A,-737280,0.0,-999.0,95,0.00,,,0.03,35,Wunderground v.1.15,2013-08-24 14:30:00,
2013-08-24 07:32:00,59.7,58.0,29.88,NW,313,0.0,0.0,95,0.00,,,0.01,21,weatherlink.com 1.10,2013-08-24 14:32:00,
2013-08-24 07:35:00,59.5,58.1,29.88,N/A,-737280,0.0,-999.0,95,0.00,,,0.03,35,Wunderground v.1.15,2013-08-24 14:35:00,
2013-08-24 07:40:00,59.7,58.3,29.88,N/A,-737280,0.0,-999.0,95,0.00,,,0.03,18,Wunderground v.1.15,2013-08-24 14:40:00,
2013-08-24 07:45:00,59.7,58.3,29.88,N/A,-737280,0.0,-999.0,95,0.00,,,0.03,18,Wunderground v.1.15,2013-08-24 14:45:00,
2013-08-24 07:47:00,59.7,58.0,29.88,NW,313,0.0,0.0,95,0.00,,,0.01,14,weatherlink.com 1.10,2013-08-24 14:47:00,
2013-08-24 07:50:00,59.7,58.3,29.88,N/A,-737280,0.0,-999.0,95,0.00,,,0.03,18,Wunderground v.1.15,2013-08-24 14:50:00,
2013-08-24 07:55:00,59.7,58.3,29.88,N/A,-737280,0.0,-999.0,95,0.00,,,0.03,17,Wunderground v.1.15,2013-08-24 14:55:00,
2013-08-24 08:00:00,59.7,58.3,29.88,N/A,-737280,0.0,-999.0,95,0.00,,,0.03,17,Wunderground v.1.15,2013-08-24 15:00:00,
2013-08-24 08:02:00,59.8,58.0,29.88,NW,313,0.0,0.0,95,0.00,,,0.01,25,weatherlink.com 1.10,2013-08-24 15:02:00,
2013-08-24 08:05:00,59.7,58.3,29.88,N/A,-737280,0.0,-999.0,95,0.00,,,0.03,17,Wunderground v.1.15,2013-08-24 15:05:00,
2013-08-24 08:10:00,59.8,58.4,29.88,NW,315,0.0,-999.0,95,0.01,,,0.03,39,Wunderground v.1.15,2013-08-24 15:10:00,
2013-08-24 08:15:00,59.8,58.4,29.88,NW,315,0.0,-999.0,95,0.01,,,0.03,39,Wunderground v.1.15,2013-08-24 15:15:00,
2013-08-24 08:17:00,59.8,58.0,29.88,NW,313,0.0,0.0,95,0.01,,,0.02,60,weatherlink.com 1.10,2013-08-24 15:17:00,
2013-08-24 08:20:00,59.8,58.4,29.88,NW,315,0.0,-999.0,95,0.01,,,0.03,39,Wunderground v.1.15,2013-08-24 15:20:00,
2013-08-24 08:25:00,59.8,58.4,29.89,WNW,293,0.0,-999.0,95,0.02,,,0.03,62,Wunderground v.1.15,2013-08-24 15:25:00,
2013-08-24 08:30:00,59.8,58.4,29.89,WNW,293,0.0,-999.0,95,0.02,,,0.03,62,Wunderground v.1.15,2013-08-24 15:30:00,
2013-08-24 08:32:00,59.9,59.0,29.89,WNW,290,0.0,1.0,95,0.02,,,0.03,60,weatherlink.com 1.10,2013-08-24 15:32:00,
2013-08-24 08:35:00,59.8,58.4,29.89,WNW,293,0.0,-999.0,95,0.02,,,0.03,62,Wunderground v.1.15,2013-08-24 15:35:00,
2013-08-24 08:40:00,59.9,58.5,29.89,ESE,113,0.0,-999.0,95,0.02,,,0.03,69,Wunderground v.1.15,2013-08-24 15:40:00,
2013-08-24 08:45:00,59.9,58.5,29.89,ESE,113,0.0,-999.0,95,0.02,,,0.03,69,Wunderground v.1.15,2013-08-24 15:45:00,
2013-08-24 08:47:00,59.9,59.0,29.89,ESE,110,0.0,3.0,95,0.02,,,0.03,83,weatherlink.com 1.10,2013-08-24 15:47:00,
2013-08-24 08:50:00,59.9,58.5,29.89,ESE,113,0.0,-999.0,95,0.02,,,0.03,69,Wunderground v.1.15,2013-08-24 15:50:00,
2013-08-24 08:55:00,60.2,58.8,29.89,ESE,113,0.0,-999.0,95,0.02,,,0.03,99,Wunderground v.1.15,2013-08-24 15:55:00,
2013-08-24 09:00:00,60.2,58.8,29.89,ESE,113,0.0,-999.0,95,0.02,,,0.03,99,Wunderground v.1.15,2013-08-24 16:00:00,
2013-08-24 09:02:00,60.3,59.0,29.89,ESE,110,0.0,0.0,95,0.02,,,0.03,93,weatherlink.com 1.10,2013-08-24 16:02:00,
2013-08-24 09:05:00,60.2,58.8,29.89,ESE,113,0.0,-999.0,95,0.02,,,0.03,99,Wunderground v.1.15,2013-08-24 16:05:00,
2013-08-24 09:10:00,60.4,58.7,29.89,ESE,113,0.0,-999.0,94,0.01,,,0.03,102,Wunderground v.1.15,2013-08-24 16:10:00,
2013-08-24 09:15:00,60.4,58.7,29.89,ESE,113,0.0,-999.0,94,0.01,,,0.03,102,Wunderground v.1.15,2013-08-24 16:15:00,
2013-08-24 09:18:00,60.4,59.0,29.89,ESE,110,0.0,0.0,94,0.01,,,0.03,114,weatherlink.com 1.10,2013-08-24 16:18:00,
2013-08-24 09:20:00,60.4,58.7,29.89,ESE,113,0.0,-999.0,94,0.01,,,0.03,102,Wunderground v.1.15,2013-08-24 16:20:00,
2013-08-24 09:25:00,60.6,59.2,29.89,ESE,113,0.0,-999.0,95,0.00,,,0.03,109,Wunderground v.1.15,2013-08-24 16:25:00,
2013-08-24 09:30:00,60.6,59.2,29.89,ESE,113,0.0,-999.0,95,0.00,,,0.03,109,Wunderground v.1.15,2013-08-24 16:30:00,
2013-08-24 09:33:00,60.9,60.0,29.89,ESE,110,0.0,1.0,95,0.00,,,0.03,100,weatherlink.com 1.10,2013-08-24 16:33:00,
2013-08-24 09:35:00,60.6,59.2,29.89,ESE,113,0.0,-999.0,95,0.00,,,0.03,109,Wunderground v.1.15,2013-08-24 16:35:00,
2013-08-24 09:40:00,61.1,59.4,29.89,N/A,-737280,0.0,-999.0,94,0.00,,,0.03,111,Wunderground v.1.15,2013-08-24 16:40:00,
2013-08-24 09:45:00,61.1,59.4,29.89,N/A,-737280,0.0,-999.0,94,0.00,,,0.03,111,Wunderground v.1.15,2013-08-24 16:45:00,
2013-08-24 09:48:00,61.2,60.0,29.89,ESE,110,0.0,0.0,94,0.00,,,0.03,125,weatherlink.com 1.10,2013-08-24 16:48:00,
2013-08-24 09:50:00,61.1,59.4,29.89,N/A,-737280,0.0,-999.0,94,0.00,,,0.03,111,Wunderground v.1.15,2013-08-24 16:50:00,
2013-08-24 09:55:00,61.4,59.4,29.89,SSE,158,0.0,-999.0,93,0.00,,,0.03,158,Wunderground v.1.15,2013-08-24 16:55:00,
2013-08-24 10:00:00,61.4,59.4,29.89,SSE,158,0.0,-999.0,93,0.00,,,0.03,158,Wunderground v.1.15,2013-08-24 17:00:00,
2013-08-24 10:03:00,61.5,60.0,29.89,SSE,148,0.0,2.0,93,0.00,,,0.03,167,weatherlink.com 1.10,2013-08-24 17:03:00,
2013-08-24 10:05:00,61.4,59.4,29.89,SSE,158,0.0,-999.0,93,0.00,,,0.03,158,Wunderground v.1.15,2013-08-24 17:05:00,
2013-08-24 10:10:00,61.6,59.6,29.89,SSE,158,0.0,-999.0,93,0.00,,,0.03,243,Wunderground v.1.15,2013-08-24 17:10:00,
2013-08-24 10:15:00,61.6,59.6,29.89,SSE,158,0.0,-999.0,93,0.00,,,0.03,243,Wunderground v.1.15,2013-08-24 17:15:00,
2013-08-24 10:18:00,62.0,60.0,29.89,SE,142,0.0,2.0,93,0.00,,,0.03,297,weatherlink.com 1.10,2013-08-24 17:18:00,
2013-08-24 10:20:00,61.6,59.6,29.89,SSE,158,0.0,-999.0,93,0.00,,,0.03,243,Wunderground v.1.15,2013-08-24 17:20:00,
2013-08-24 10:25:00,62.6,59.6,29.89,ESE,113,1.0,-999.0,90,0.00,,,0.03,397,Wunderground v.1.15,2013-08-24 17:25:00,
2013-08-24 10:30:00,62.6,59.6,29.89,ESE,113,1.0,-999.0,90,0.00,,,0.03,397,Wunderground v.1.15,2013-08-24 17:30:00,
2013-08-24 10:33:00,63.2,60.0,29.89,ESE,107,0.0,3.0,89,0.00,,,0.03,294,weatherlink.com 1.10,2013-08-24 17:33:00,
2013-08-24 10:35:00,62.6,59.6,29.89,ESE,113,1.0,-999.0,90,0.00,,,0.03,397,Wunderground v.1.15,2013-08-24 17:35:00,
2013-08-24 10:40:00,63.6,59.7,29.89,ESE,113,0.0,-999.0,87,0.00,,,0.03,166,Wunderground v.1.15,2013-08-24 17:40:00,
2013-08-24 10:45:00,63.6,59.7,29.89,ESE,113,0.0,-999.0,87,0.00,,,0.03,166,Wunderground v.1.15,2013-08-24 17:45:00,
2013-08-24 10:48:00,63.8,60.0,29.89,South,191,0.0,2.0,88,0.00,,,0.03,167,weatherlink.com 1.10,2013-08-24 17:48:00,
2013-08-24 10:50:00,63.6,59.7,29.89,ESE,113,0.0,-999.0,87,0.00,,,0.03,166,Wunderground v.1.15,2013-08-24 17:50:00,
2013-08-24 10:55:00,63.7,60.1,29.89,South,180,0.0,-999.0,88,0.00,,,0.03,159,Wunderground v.1.15,2013-08-24 17:55:00,
2013-08-24 11:00:00,63.7,60.1,29.89,South,180,0.0,-999.0,88,0.00,,,0.03,159,Wunderground v.1.15,2013-08-24 18:00:00,
2013-08-24 11:03:00,63.8,60.0,29.89,South,191,0.0,0.0,88,0.00,,,0.03,155,weatherlink.com 1.10,2013-08-24 18:03:00,
2013-08-24 11:05:00,63.7,60.1,29.89,South,180,0.0,-999.0,88,0.00,,,0.03,159,Wunderground v.1.15,2013-08-24 18:05:00,
2013-08-24 11:10:00,64.0,60.1,29.89,South,180,0.0,-999.0,87,0.00,,,0.03,211,Wunderground v.1.15,2013-08-24 18:10:00,
2013-08-24 11:15:00,64.0,60.1,29.89,South,180,0.0,-999.0,87,0.00,,,0.03,211,Wunderground v.1.15,2013-08-24 18:15:00,
2013-08-24 11:18:00,64.4,60.0,29.89,SE,132,0.0,2.0,86,0.00,,,0.03,192,weatherlink.com 1.10,2013-08-24 18:18:00,
2013-08-24 11:20:00,64.0,60.1,29.89,South,180,0.0,-999.0,87,0.00,,,0.03,211,Wunderground v.1.15,2013-08-24 18:20:00,
2013-08-24 11:25:00,64.6,59.7,29.89,SE,135,0.0,-999.0,84,0.00,,,0.03,160,Wunderground v.1.15,2013-08-24 18:25:00,
2013-08-24 11:30:00,64.6,59.7,29.89,SE,135,0.0,-999.0,84,0.00,,,0.03,160,Wunderground v.1.15,2013-08-24 18:30:00,
2013-08-24 11:33:00,64.6,60.0,29.89,SE,129,0.0,2.0,84,0.00,,,0.03,179,weatherlink.com 1.10,2013-08-24 18:33:00,
2013-08-24 11:35:00,64.6,59.7,29.89,SE,135,0.0,-999.0,84,0.00,,,0.03,160,Wunderground v.1.15,2013-08-24 18:35:00,
2013-08-24 11:40:00,64.8,60.2,29.89,SE,135,0.0,-999.0,85,0.00,,,0.03,274,Wunderground v.1.15,2013-08-24 18:40:00,
2013-08-24 11:45:00,64.8,60.2,29.89,SE,135,0.0,-999.0,85,0.00,,,0.03,274,Wunderground v.1.15,2013-08-24 18:45:00,
2013-08-24 11:48:00,65.4,60.0,29.89,SE,126,0.0,2.0,82,0.00,,,0.03,452,weatherlink.com 1.10,2013-08-24 18:48:00,
2013-08-24 11:50:00,64.8,60.2,29.89,SE,135,0.0,-999.0,85,0.00,,,0.03,274,Wunderground v.1.15,2013-08-24 18:50:00,
2013-08-24 11:55:00,65.7,59.4,29.89,ESE,113,1.0,-999.0,80,0.00,,,0.03,237,Wunderground v.1.15,2013-08-24 18:55:00,
2013-08-24 12:00:00,65.7,59.4,29.89,ESE,113,1.0,-999.0,80,0.00,,,0.03,237,Wunderground v.1.15,2013-08-24 19:00:00,
2013-08-24 12:03:00,65.8,60.0,29.89,SE,126,0.0,5.0,80,0.00,,,0.03,97,weatherlink.com 1.10,2013-08-24 19:03:00,
2013-08-24 12:05:00,65.7,59.4,29.89,ESE,113,1.0,-999.0,80,0.00,,,0.03,237,Wunderground v.1.15,2013-08-24 19:05:00,
2013-08-24 12:10:00,64.6,60.3,29.89,WNW,293,3.0,-999.0,86,0.00,,,0.03,122,Wunderground v.1.15,2013-08-24 19:10:00,
2013-08-24 12:15:00,64.6,60.3,29.89,WNW,293,3.0,-999.0,86,0.00,,,0.03,122,Wunderground v.1.15,2013-08-24 19:15:00,
2013-08-24 12:18:00,63.4,59.0,29.89,WNW,293,4.0,6.0,86,0.00,,,0.03,299,weatherlink.com 1.10,2013-08-24 19:18:00,
2013-08-24 12:20:00,64.6,60.3,29.89,WNW,293,3.0,-999.0,86,0.00,,,0.03,122,Wunderground v.1.15,2013-08-24 19:20:00,
2013-08-24 12:25:00,63.6,59.3,29.88,WNW,293,3.0,-999.0,86,0.00,,,0.03,339,Wunderground v.1.15,2013-08-24 19:25:00,
2013-08-24 12:30:00,63.6,59.3,29.88,WNW,293,3.0,-999.0,86,0.00,,,0.03,339,Wunderground v.1.15,2013-08-24 19:30:00,
2013-08-24 12:33:00,63.9,60.0,29.88,WNW,283,1.0,7.0,86,0.00,,,0.03,202,weatherlink.com 1.10,2013-08-24 19:33:00,
2013-08-24 12:35:00,63.6,59.3,29.88,WNW,293,3.0,-999.0,86,0.00,,,0.03,339,Wunderground v.1.15,2013-08-24 19:35:00,
2013-08-24 12:40:00,64.0,60.1,29.89,NW,315,2.0,-999.0,87,0.00,,,0.03,155,Wunderground v.1.15,2013-08-24 19:40:00,
2013-08-24 12:45:00,64.0,60.1,29.89,NW,315,2.0,-999.0,87,0.00,,,0.03,155,Wunderground v.1.15,2013-08-24 19:45:00,
2013-08-24 12:48:00,64.1,60.0,29.89,NW,325,0.0,4.0,87,0.00,,,0.03,172,weatherlink.com 1.10,2013-08-24 19:48:00,
2013-08-24 12:50:00,64.0,60.1,29.89,NW,315,2.0,-999.0,87,0.00,,,0.03,155,Wunderground v.1.15,2013-08-24 19:50:00,
2013-08-24 12:55:00,64.4,60.1,29.89,NNW,338,1.0,-999.0,86,0.00,,,0.03,218,Wunderground v.1.15,2013-08-24 19:55:00,
2013-08-24 13:00:00,64.4,60.1,29.89,NNW,338,1.0,-999.0,86,0.00,,,0.03,218,Wunderground v.1.15,2013-08-24 20:00:00,
2013-08-24 13:03:00,64.6,60.0,29.89,WNW,291,2.0,5.0,84,0.00,,,0.03,241,weatherlink.com 1.10,2013-08-24 20:03:00,
2013-08-24 13:05:00,64.4,60.1,29.89,NNW,338,1.0,-999.0,86,0.00,,,0.03,218,Wunderground v.1.15,2013-08-24 20:05:00,
2013-08-24 13:10:00,64.7,59.8,29.89,WNW,293,1.0,-999.0,84,0.00,,,0.03,220,Wunderground v.1.15,2013-08-24 20:10:00,
2013-08-24 13:15:00,64.7,59.8,29.89,WNW,293,1.0,-999.0,84,0.00,,,0.03,220,Wunderground v.1.15,2013-08-24 20:15:00,
2013-08-24 13:18:00,64.8,60.0,29.89,NNW,340,1.0,4.0,84,0.00,,,0.03,257,weatherlink.com 1.10,2013-08-24 20:18:00,
2013-08-24 13:20:00,64.7,59.8,29.89,WNW,293,1.0,-999.0,84,0.00,,,0.03,220,Wunderground v.1.15,2013-08-24 20:20:00,
2013-08-24 13:25:00,65.1,60.1,29.88,NNW,338,1.0,-999.0,84,0.00,,,0.03,356,Wunderground v.1.15,2013-08-24 20:25:00,
2013-08-24 13:30:00,65.1,60.1,29.88,NNW,338,1.0,-999.0,84,0.00,,,0.03,356,Wunderground v.1.15,2013-08-24 20:30:00,
2013-08-24 13:33:00,65.8,61.0,29.88,NNE,13,0.0,4.0,83,0.00,,,0.03,399,weatherlink.com 1.10,2013-08-24 20:33:00,
2013-08-24 13:35:00,65.1,60.1,29.88,NNW,338,1.0,-999.0,84,0.00,,,0.03,356,Wunderground v.1.15,2013-08-24 20:35:00,
2013-08-24 13:40:00,66.3,60.6,29.88,NNW,338,1.0,-999.0,82,0.00,,,0.03,473,Wunderground v.1.15,2013-08-24 20:40:00,
2013-08-24 13:45:00,66.3,60.6,29.88,NNW,338,1.0,-999.0,82,0.00,,,0.03,473,Wunderground v.1.15,2013-08-24 20:45:00,
2013-08-24 13:48:00,67.0,61.0,29.88,NNW,337,1.0,5.0,81,0.00,,,0.03,504,weatherlink.com 1.10,2013-08-24 20:48:00,
2013-08-24 13:50:00,66.3,60.6,29.88,NNW,338,1.0,-999.0,82,0.00,,,0.03,473,Wunderground v.1.15,2013-08-24 20:50:00,
2013-08-24 13:55:00,67.3,60.2,29.88,WNW,293,1.0,-999.0,78,0.00,,,0.03,458,Wunderground v.1.15,2013-08-24 20:55:00,
2013-08-24 14:00:00,67.3,60.2,29.88,WNW,293,1.0,-999.0,78,0.00,,,0.03,458,Wunderground v.1.15,2013-08-24 21:00:00,
2013-08-24 14:03:00,67.5,60.0,29.88,NNW,338,3.0,5.0,77,0.00,,,0.03,353,weatherlink.com 1.10,2013-08-24 21:03:00,
2013-08-24 14:05:00,67.3,60.2,29.88,WNW,293,1.0,-999.0,78,0.00,,,0.03,458,Wunderground v.1.15,2013-08-24 21:05:00,
2013-08-24 14:10:00,67.9,60.8,29.88,North,0,1.0,-999.0,78,0.00,,,0.03,553,Wunderground v.1.15,2013-08-24 21:10:00,
2013-08-24 14:15:00,67.9,60.8,29.88,North,0,1.0,-999.0,78,0.00,,,0.03,553,Wunderground v.1.15,2013-08-24 21:15:00,
2013-08-24 14:18:00,69.2,62.0,29.88,NNW,336,1.0,3.0,78,0.00,,,0.03,904,weatherlink.com 1.10,2013-08-24 21:18:00,
2013-08-24 14:20:00,67.9,60.8,29.88,North,0,1.0,-999.0,78,0.00,,,0.03,553,Wunderground v.1.15,2013-08-24 21:20:00,
2013-08-24 14:25:00,69.9,60.5,29.88,NNW,338,1.0,-999.0,72,0.00,,,0.03,912,Wunderground v.1.15,2013-08-24 21:25:00,
2013-08-24 14:30:00,69.9,60.5,29.88,NNW,338,1.0,-999.0,72,0.00,,,0.03,912,Wunderground v.1.15,2013-08-24 21:30:00,
2013-08-24 14:33:00,70.4,61.0,29.88,NNW,342,0.0,5.0,71,0.00,,,0.03,881,weatherlink.com 1.10,2013-08-24 21:33:00,
2013-08-24 14:35:00,69.9,60.5,29.88,NNW,338,1.0,-999.0,72,0.00,,,0.03,912,Wunderground v.1.15,2013-08-24 21:35:00,
2013-08-24 14:40:00,69.8,61.1,29.87,NNW,338,1.0,-999.0,74,0.00,,,0.03,350,Wunderground v.1.15,2013-08-24 21:40:00,
2013-08-24 14:45:00,69.8,61.1,29.87,NNW,338,1.0,-999.0,74,0.00,,,0.03,350,Wunderground v.1.15,2013-08-24 21:45:00,
2013-08-24 14:48:00,69.9,61.0,29.87,NW,321,2.0,4.0,73,0.00,,,0.03,793,weatherlink.com 1.10,2013-08-24 21:48:00,
2013-08-24 14:50:00,69.8,61.1,29.87,NNW,338,1.0,-999.0,74,0.00,,,0.03,350,Wunderground v.1.15,2013-08-24 21:50:00,
2013-08-24 14:55:00,69.7,61.4,29.87,NW,315,1.0,-999.0,75,0.00,,,0.03,322,Wunderground v.1.15,2013-08-24 21:55:00,
2013-08-24 15:00:00,69.7,61.4,29.87,NW,315,1.0,-999.0,75,0.00,,,0.03,322,Wunderground v.1.15,2013-08-24 22:00:00,
2013-08-24 15:03:00,70.0,61.0,29.87,NNW,329,3.0,3.0,73,0.00,,,0.03,329,weatherlink.com 1.10,2013-08-24 22:03:00,
2013-08-24 15:05:00,69.7,61.4,29.87,NW,315,1.0,-999.0,75,0.00,,,0.03,322,Wunderground v.1.15,2013-08-24 22:05:00,
2013-08-24 15:10:00,70.1,59.5,29.86,NNW,338,1.0,-999.0,69,0.00,,,0.03,532,Wunderground v.1.15,2013-08-24 22:10:00,
2013-08-24 15:15:00,70.1,59.5,29.86,NNW,338,1.0,-999.0,69,0.00,,,0.03,532,Wunderground v.1.15,2013-08-24 22:15:00,
2013-08-24 15:18:00,70.1,59.0,29.86,WNW,287,1.0,5.0,69,0.00,,,0.03,671,weatherlink.com 1.10,2013-08-24 22:18:00,
2013-08-24 15:20:00,70.1,59.5,29.86,NNW,338,1.0,-999.0,69,0.00,,,0.03,532,Wunderground v.1.15,2013-08-24 22:20:00,
2013-08-24 15:25:00,69.6,59.8,29.86,WNW,293,3.0,-999.0,71,0.00,,,0.03,332,Wunderground v.1.15,2013-08-24 22:25:00,
2013-08-24 15:30:00,69.6,59.8,29.86,WNW,293,3.0,-999.0,71,0.00,,,0.03,332,Wunderground v.1.15,2013-08-24 22:30:00,
2013-08-24 15:33:00,69.2,59.0,29.86,NNW,329,1.0,5.0,71,0.00,,,0.03,847,weatherlink.com 1.10,2013-08-24 22:33:00,
2013-08-24 15:35:00,69.6,59.8,29.86,WNW,293,3.0,-999.0,71,0.00,,,0.03,332,Wunderground v.1.15,2013-08-24 22:35:00,
2013-08-24 15:40:00,70.2,58.7,29.86,NE,45,1.0,-999.0,67,0.00,,,0.03,557,Wunderground v.1.15,2013-08-24 22:40:00,
2013-08-24 15:45:00,70.2,58.7,29.86,NE,45,1.0,-999.0,67,0.00,,,0.03,557,Wunderground v.1.15,2013-08-24 22:45:00,
2013-08-24 15:48:00,71.1,60.0,29.86,NNW,346,5.0,5.0,68,0.00,,,0.03,603,weatherlink.com 1.10,2013-08-24 22:48:00,
2013-08-24 15:50:00,70.2,58.7,29.86,NE,45,1.0,-999.0,67,0.00,,,0.03,557,Wunderground v.1.15,2013-08-24 22:50:00,
2013-08-24 15:55:00,70.7,59.2,29.86,North,0,1.0,-999.0,67,0.00,,,0.03,256,Wunderground v.1.15,2013-08-24 22:55:00,
2013-08-24 16:00:00,70.7,59.2,29.86,North,0,1.0,-999.0,67,0.00,,,0.03,256,Wunderground v.1.15,2013-08-24 23:00:00,
2013-08-24 16:03:00,70.6,59.0,29.86,North,360,0.0,3.0,67,0.00,,,0.03,162,weatherlink.com 1.10,2013-08-24 23:03:00,
2013-08-24 16:05:00,70.7,59.2,29.86,North,0,1.0,-999.0,67,0.00,,,0.03,256,Wunderground v.1.15,2013-08-24 23:05:00,
2013-08-24 16:10:00,70.3,59.6,29.86,NW,315,1.0,-999.0,69,0.00,,,0.03,121,Wunderground v.1.15,2013-08-24 23:10:00,
2013-08-24 16:15:00,70.3,59.6,29.86,NW,315,1.0,-999.0,69,0.00,,,0.03,121,Wunderground v.1.15,2013-08-24 23:15:00,
2013-08-24 16:18:00,69.9,59.0,29.86,ESE,114,1.0,5.0,69,0.00,,,0.03,130,weatherlink.com 1.10,2013-08-24 23:18:00,
2013-08-24 16:20:00,70.3,59.6,29.86,NW,315,1.0,-999.0,69,0.00,,,0.03,121,Wunderground v.1.15,2013-08-24 23:20:00,
2013-08-24 16:25:00,69.8,58.8,29.86,NNW,338,1.0,-999.0,68,0.00,,,0.03,158,Wunderground v.1.15,2013-08-24 23:25:00,
2013-08-24 16:30:00,69.8,58.8,29.86,NNW,338,1.0,-999.0,68,0.00,,,0.03,158,Wunderground v.1.15,2013-08-24 23:30:00,
2013-08-24 16:33:00,69.8,59.0,29.86,West,281,5.0,5.0,68,0.00,,,0.03,248,weatherlink.com 1.10,2013-08-24 23:33:00,
2013-08-24 16:35:00,69.8,58.8,29.86,NNW,338,1.0,-999.0,68,0.00,,,0.03,158,Wunderground v.1.15,2013-08-24 23:35:00,
2013-08-24 16:40:00,69.8,58.8,29.85,NNW,338,1.0,-999.0,68,0.00,,,0.03,198,Wunderground v.1.15,2013-08-24 23:40:00,
2013-08-24 16:45:00,69.8,58.8,29.85,NNW,338,1.0,-999.0,68,0.00,,,0.03,198,Wunderground v.1.15,2013-08-24 23:45:00,
2013-08-24 16:48:00,70.0,58.0,29.85,ENE,71,0.0,3.0,67,0.00,,,0.03,176,weatherlink.com 1.10,2013-08-24 23:48:00,
2013-08-24 16:50:00,69.8,58.8,29.85,NNW,338,1.0,-999.0,68,0.00,,,0.03,198,Wunderground v.1.15,2013-08-24 23:50:00,
2013-08-24 16:55:00,70.0,58.1,29.85,WNW,293,1.0,-999.0,66,0.00,,,0.03,198,Wunderground v.1.15,2013-08-24 23:55:00,
2013-08-24 17:00:00,70.0,58.1,29.85,WNW,293,1.0,-999.0,66,0.00,,,0.03,198,Wunderground v.1.15,2013-08-25 00:00:00,
2013-08-24 17:03:00,70.1,59.0,29.85,West,267,2.0,5.0,67,0.00,,,0.03,202,weatherlink.com 1.10,2013-08-25 00:03:00,
2013-08-24 17:05:00,70.0,58.1,29.85,WNW,293,1.0,-999.0,66,0.00,,,0.03,198,Wunderground v.1.15,2013-08-25 00:05:00,
2013-08-24 17:10:00,70.1,57.8,29.85,West,270,1.0,-999.0,65,0.00,,,0.03,177,Wunderground v.1.15,2013-08-25 00:10:00,
2013-08-24 17:15:00,70.1,57.8,29.85,West,270,1.0,-999.0,65,0.00,,,0.03,177,Wunderground v.1.15,2013-08-25 00:15:00,
2013-08-24 17:18:00,70.4,58.0,29.85,East,96,2.0,5.0,66,0.00,,,0.03,167,weatherlink.com 1.10,2013-08-25 00:18:00,
2013-08-24 17:20:00,70.1,57.8,29.85,West,270,1.0,-999.0,65,0.00,,,0.03,177,Wunderground v.1.15,2013-08-25 00:20:00,
2013-08-24 17:25:00,70.7,57.0,29.85,WNW,293,1.0,-999.0,62,0.00,,,0.03,217,Wunderground v.1.15,2013-08-25 00:25:00,
2013-08-24 17:30:00,70.7,57.0,29.85,WNW,293,1.0,-999.0,62,0.00,,,0.03,217,Wunderground v.1.15,2013-08-25 00:30:00,
2013-08-24 17:33:00,71.3,57.0,29.85,West,275,2.0,4.0,62,0.00,,,0.03,380,weatherlink.com 1.10,2013-08-25 00:33:00,
2013-08-24 17:35:00,70.7,57.0,29.85,WNW,293,1.0,-999.0,62,0.00,,,0.03,217,Wunderground v.1.15,2013-08-25 00:35:00,
2013-08-24 17:40:00,71.6,57.0,29.85,SE,135,1.0,-999.0,60,0.00,,,0.03,196,Wunderground v.1.15,2013-08-25 00:40:00,
2013-08-24 17:45:00,71.6,57.0,29.85,SE,135,1.0,-999.0,60,0.00,,,0.03,196,Wunderground v.1.15,2013-08-25 00:45:00,
2013-08-24 17:48:00,71.7,57.0,29.85,West,277,1.0,5.0,60,0.00,,,0.03,86,weatherlink.com 1.10,2013-08-25 00:48:00,
2013-08-24 17:50:00,71.6,57.0,29.85,SE,135,1.0,-999.0,60,0.00,,,0.03,196,Wunderground v.1.15,2013-08-25 00:50:00,
2013-08-24 17:55:00,71.0,56.4,29.85,NW,315,2.0,-999.0,60,0.00,,,0.03,68,Wunderground v.1.15,2013-08-25 00:55:00,
2013-08-24 18:00:00,71.0,56.4,29.85,NW,315,2.0,-999.0,60,0.00,,,0.03,68,Wunderground v.1.15,2013-08-25 01:00:00,
2013-08-24 18:03:00,70.2,56.0,29.85,NW,319,4.0,6.0,61,0.00,,,0.03,90,weatherlink.com 1.10,2013-08-25 01:03:00,
2013-08-24 18:05:00,71.0,56.4,29.85,NW,315,2.0,-999.0,60,0.00,,,0.03,68,Wunderground v.1.15,2013-08-25 01:05:00,
2013-08-24 18:10:00,69.9,55.4,29.85,WNW,293,4.0,-999.0,60,0.00,,,0.03,112,Wunderground v.1.15,2013-08-25 01:10:00,
2013-08-24 18:15:00,69.9,55.4,29.85,WNW,293,4.0,-999.0,60,0.00,,,0.03,112,Wunderground v.1.15,2013-08-25 01:15:00,
2013-08-24 18:18:00,69.7,55.0,29.85,WNW,298,3.0,7.0,59,0.00,,,0.03,116,weatherlink.com 1.10,2013-08-25 01:18:00,
2013-08-24 18:20:00,69.9,55.4,29.85,WNW,293,4.0,-999.0,60,0.00,,,0.03,112,Wunderground v.1.15,2013-08-25 01:20:00,
2013-08-24 18:25:00,69.8,54.8,29.85,WNW,293,3.0,-999.0,59,0.00,,,0.03,173,Wunderground v.1.15,2013-08-25 01:25:00,
2013-08-24 18:30:00,69.8,54.8,29.85,WNW,293,3.0,-999.0,59,0.00,,,0.03,173,Wunderground v.1.15,2013-08-25 01:30:00,
2013-08-24 18:33:00,70.5,55.0,29.85,NW,306,3.0,5.0,59,0.00,,,0.03,211,weatherlink.com 1.10,2013-08-25 01:33:00,
2013-08-24 18:35:00,69.8,54.8,29.85,WNW,293,3.0,-999.0,59,0.00,,,0.03,173,Wunderground v.1.15,2013-08-25 01:35:00,
2013-08-24 18:40:00,70.5,57.3,29.84,WNW,293,3.0,-999.0,63,0.00,,,0.03,186,Wunderground v.1.15,2013-08-25 01:40:00,
2013-08-24 18:45:00,70.5,57.3,29.84,WNW,293,3.0,-999.0,63,0.00,,,0.03,186,Wunderground v.1.15,2013-08-25 01:45:00,
2013-08-24 18:48:00,70.3,57.0,29.84,NW,306,2.0,5.0,63,0.00,,,0.03,144,weatherlink.com 1.10,2013-08-25 01:48:00,
2013-08-24 18:50:00,70.5,57.3,29.84,WNW,293,3.0,-999.0,63,0.00,,,0.03,186,Wunderground v.1.15,2013-08-25 01:50:00,
2013-08-24 18:55:00,69.1,58.9,29.85,WNW,293,4.0,-999.0,70,0.00,,,0.03,118,Wunderground v.1.15,2013-08-25 01:55:00,
2013-08-24 19:00:00,69.1,58.9,29.85,WNW,293,4.0,-999.0,70,0.00,,,0.03,118,Wunderground v.1.15,2013-08-25 02:00:00,
2013-08-24 19:03:00,67.2,57.0,29.85,WNW,294,4.0,9.0,71,0.00,,,0.03,84,weatherlink.com 1.10,2013-08-25 02:03:00,
2013-08-24 19:05:00,69.1,58.9,29.85,WNW,293,4.0,-999.0,70,0.00,,,0.03,118,Wunderground v.1.15,2013-08-25 02:05:00,
2013-08-24 19:10:00,65.9,58.1,29.85,WNW,293,5.0,-999.0,76,0.00,,,0.03,63,Wunderground v.1.15,2013-08-25 02:10:00,
2013-08-24 19:15:00,65.9,58.1,29.85,WNW,293,5.0,-999.0,76,0.00,,,0.03,63,Wunderground v.1.15,2013-08-25 02:15:00,
2013-08-24 19:18:00,64.4,57.0,29.85,NW,311,5.0,11.0,76,0.00,,,0.03,69,weatherlink.com 1.10,2013-08-25 02:18:00,
2013-08-24 19:20:00,65.9,58.1,29.85,WNW,293,5.0,-999.0,76,0.00,,,0.03,63,Wunderground v.1.15,2013-08-25 02:20:00,
2013-08-24 19:30:00,64.5,56.8,29.85,WNW,293,4.0,-999.0,76,0.00,,,0.03,60,Wunderground v.1.15,2013-08-25 02:30:00,
2013-08-24 19:33:00,64.5,57.0,29.85,WNW,300,4.0,7.0,76,0.00,,,0.03,40,weatherlink.com 1.10,2013-08-25 02:33:00,
2013-08-24 19:35:00,64.5,56.8,29.85,WNW,293,4.0,-999.0,76,0.00,,,0.03,60,Wunderground v.1.15,2013-08-25 02:35:00,
2013-08-24 19:40:00,64.1,56.7,29.85,WNW,293,3.0,-999.0,77,0.00,,,0.03,21,Wunderground v.1.15,2013-08-25 02:40:00,
2013-08-24 19:45:00,64.1,56.7,29.85,WNW,293,3.0,-999.0,77,0.00,,,0.03,21,Wunderground v.1.15,2013-08-25 02:45:00,
2013-08-24 19:48:00,63.7,56.0,29.85,NW,308,2.0,5.0,77,0.00,,,0.03,7,weatherlink.com 1.10,2013-08-25 02:48:00,
2013-08-24 19:50:00,64.1,56.7,29.85,WNW,293,3.0,-999.0,77,0.00,,,0.03,21,Wunderground v.1.15,2013-08-25 02:50:00,
2013-08-24 19:55:00,63.4,56.4,29.86,NW,315,2.0,-999.0,78,0.00,,,0.03,4,Wunderground v.1.15,2013-08-25 02:55:00,
2013-08-24 20:00:00,63.4,56.4,29.86,NW,315,2.0,-999.0,78,0.00,,,0.03,4,Wunderground v.1.15,2013-08-25 03:00:00,
2013-08-24 20:03:00,63.2,56.0,29.86,NW,307,0.0,4.0,78,0.00,,,0.03,0,weatherlink.com 1.10,2013-08-25 03:03:00,
2013-08-24 20:05:00,63.4,56.4,29.86,NW,315,2.0,-999.0,78,0.00,,,0.03,4,Wunderground v.1.15,2013-08-25 03:05:00,
2013-08-24 20:10:00,63.0,56.0,29.87,NW,315,0.0,-999.0,78,0.00,,,0.03,0,Wunderground v.1.15,2013-08-25 03:10:00,
2013-08-24 20:15:00,63.0,56.0,29.87,NW,315,0.0,-999.0,78,0.00,,,0.03,0,Wunderground v.1.15,2013-08-25 03:15:00,
2013-08-24 20:18:00,62.8,56.0,29.87,NW,307,0.0,2.0,78,0.00,,,0.03,0,weatherlink.com 1.10,2013-08-25 03:18:00,
2013-08-24 20:20:00,63.0,56.0,29.87,NW,315,0.0,-999.0,78,0.00,,,0.03,0,Wunderground v.1.15,2013-08-25 03:20:00,
2013-08-24 20:25:00,62.6,55.6,29.87,NW,315,0.0,-999.0,78,0.00,,,0.03,0,Wunderground v.1.15,2013-08-25 03:25:00,
2013-08-24 20:30:00,62.6,55.6,29.87,NW,315,0.0,-999.0,78,0.00,,,0.03,0,Wunderground v.1.15,2013-08-25 03:30:00,
2013-08-24 20:33:00,62.3,55.0,29.87,NW,324,0.0,5.0,77,0.00,,,0.03,0,weatherlink.com 1.10,2013-08-25 03:33:00,
2013-08-24 20:35:00,62.6,55.6,29.87,NW,315,0.0,-999.0,78,0.00,,,0.03,0,Wunderground v.1.15,2013-08-25 03:35:00,
2013-08-24 20:40:00,62.1,54.4,29.87,NNW,338,0.0,-999.0,76,0.00,,,0.03,0,Wunderground v.1.15,2013-08-25 03:40:00,
2013-08-24 20:45:00,62.1,54.4,29.87,NNW,338,0.0,-999.0,76,0.00,,,0.03,0,Wunderground v.1.15,2013-08-25 03:45:00,
2013-08-24 20:48:00,61.9,54.0,29.87,WSW,257,0.0,2.0,76,0.00,,,0.03,0,weatherlink.com 1.10,2013-08-25 03:48:00,
2013-08-24 20:50:00,62.1,54.4,29.87,NNW,338,0.0,-999.0,76,0.00,,,0.03,0,Wunderground v.1.15,2013-08-25 03:50:00,
2013-08-24 20:55:00,61.8,54.5,29.88,North,0,0.0,-999.0,77,0.00,,,0.03,0,Wunderground v.1.15,2013-08-25 03:55:00,
2013-08-24 21:00:00,61.8,54.5,29.88,North,0,0.0,-999.0,77,0.00,,,0.03,0,Wunderground v.1.15,2013-08-25 04:00:00,
2013-08-24 21:03:00,61.5,54.0,29.88,West,265,0.0,2.0,76,0.00,,,0.03,0,weatherlink.com 1.10,2013-08-25 04:03:00,
2013-08-24 21:05:00,61.8,54.5,29.88,North,0,0.0,-999.0,77,0.00,,,0.03,0,Wunderground v.1.15,2013-08-25 04:05:00,
2013-08-24 21:10:00,61.4,54.1,29.88,WNW,293,0.0,-999.0,77,0.00,,,0.03,0,Wunderground v.1.15,2013-08-25 04:10:00,
2013-08-24 21:15:00,61.4,54.1,29.88,WNW,293,0.0,-999.0,77,0.00,,,0.03,0,Wunderground v.1.15,2013-08-25 04:15:00,
2013-08-24 21:18:00,61.1,54.0,29.88,North,355,1.0,3.0,77,0.00,,,0.03,0,weatherlink.com 1.10,2013-08-25 04:18:00,
2013-08-24 21:20:00,61.4,54.1,29.88,WNW,293,0.0,-999.0,77,0.00,,,0.03,0,Wunderground v.1.15,2013-08-25 04:20:00,
2013-08-24 21:25:00,61.0,54.1,29.88,North,0,0.0,-999.0,78,0.00,,,0.03,0,Wunderground v.1.15,2013-08-25 04:25:00,
2013-08-24 21:30:00,61.0,54.1,29.88,North,0,0.0,-999.0,78,0.00,,,0.03,0,Wunderground v.1.15,2013-08-25 04:30:00,
2013-08-24 21:34:00,60.7,54.0,29.88,North,360,0.0,3.0,78,0.00,,,0.03,0,weatherlink.com 1.10,2013-08-25 04:34:00,
2013-08-24 21:35:00,61.0,54.1,29.88,North,0,0.0,-999.0,78,0.00,,,0.03,0,Wunderground v.1.15,2013-08-25 04:35:00,
2013-08-24 21:40:00,60.5,54.0,29.88,NNW,338,0.0,-999.0,79,0.00,,,0.03,0,Wunderground v.1.15,2013-08-25 04:40:00,
2013-08-24 21:45:00,60.5,54.0,29.88,NNW,338,0.0,-999.0,79,0.00,,,0.03,0,Wunderground v.1.15,2013-08-25 04:45:00,
2013-08-24 21:49:00,60.2,54.0,29.88,NNW,344,0.0,2.0,80,0.00,,,0.03,0,weatherlink.com 1.10,2013-08-25 04:49:00,
2013-08-24 21:50:00,60.5,54.0,29.88,NNW,338,0.0,-999.0,79,0.00,,,0.03,0,Wunderground v.1.15,2013-08-25 04:50:00,
2013-08-24 21:55:00,60.0,54.2,29.89,NNW,338,0.0,-999.0,81,0.00,,,0.03,0,Wunderground v.1.15,2013-08-25 04:55:00,
2013-08-24 22:00:00,60.0,54.2,29.89,NNW,338,0.0,-999.0,81,0.00,,,0.03,0,Wunderground v.1.15,2013-08-25 05:00:00,
2013-08-24 22:04:00,59.9,54.0,29.89,NNE,16,1.0,3.0,81,0.00,,,0.03,0,weatherlink.com 1.10,2013-08-25 05:04:00,
2013-08-24 22:05:00,60.0,54.2,29.89,NNW,338,0.0,-999.0,81,0.00,,,0.03,0,Wunderground v.1.15,2013-08-25 05:05:00,
2013-08-24 22:10:00,59.8,54.0,29.90,NNE,23,0.0,-999.0,81,0.00,,,0.03,0,Wunderground v.1.15,2013-08-25 05:10:00,
2013-08-24 22:15:00,59.8,54.0,29.90,NNE,23,0.0,-999.0,81,0.00,,,0.03,0,Wunderground v.1.15,2013-08-25 05:15:00,
2013-08-24 22:19:00,59.7,54.0,29.89,North,10,0.0,5.0,81,0.00,,,0.03,0,weatherlink.com 1.10,2013-08-25 05:19:00,
2013-08-24 22:20:00,59.8,54.0,29.90,NNE,23,0.0,-999.0,81,0.00,,,0.03,0,Wunderground v.1.15,2013-08-25 05:20:00,
2013-08-24 22:25:00,59.6,54.4,29.90,North,0,0.0,-999.0,83,0.00,,,0.03,0,Wunderground v.1.15,2013-08-25 05:25:00,
2013-08-24 22:30:00,59.6,54.4,29.90,North,0,0.0,-999.0,83,0.00,,,0.03,0,Wunderground v.1.15,2013-08-25 05:30:00,
2013-08-24 22:34:00,59.4,54.0,29.90,North,10,0.0,0.0,83,0.00,,,0.03,0,weatherlink.com 1.10,2013-08-25 05:34:00,
2013-08-24 22:35:00,59.6,54.4,29.90,North,0,0.0,-999.0,83,0.00,,,0.03,0,Wunderground v.1.15,2013-08-25 05:35:00,
2013-08-24 22:40:00,59.2,54.4,29.90,North,0,0.0,-999.0,84,0.00,,,0.03,0,Wunderground v.1.15,2013-08-25 05:40:00,
2013-08-24 22:45:00,59.2,54.4,29.90,North,0,0.0,-999.0,84,0.00,,,0.03,0,Wunderground v.1.15,2013-08-25 05:45:00,
2013-08-24 22:49:00,58.9,54.0,29.90,North,10,0.0,2.0,84,0.00,,,0.03,0,weatherlink.com 1.10,2013-08-25 05:49:00,
2013-08-24 22:50:00,59.2,54.4,29.90,North,0,0.0,-999.0,84,0.00,,,0.03,0,Wunderground v.1.15,2013-08-25 05:50:00,
2013-08-24 22:55:00,58.7,53.9,29.90,North,0,0.0,-999.0,84,0.00,,,0.03,0,Wunderground v.1.15,2013-08-25 05:55:00,
2013-08-24 23:00:00,58.7,53.9,29.90,North,0,0.0,-999.0,84,0.00,,,0.03,0,Wunderground v.1.15,2013-08-25 06:00:00,
2013-08-24 23:04:00,58.5,54.0,29.90,North,10,0.0,0.0,84,0.00,,,0.03,0,weatherlink.com 1.10,2013-08-25 06:04:00,
2013-08-24 23:05:00,58.7,53.9,29.90,North,0,0.0,-999.0,84,0.00,,,0.03,0,Wunderground v.1.15,2013-08-25 06:05:00,
2013-08-24 23:10:00,58.3,53.8,29.90,N/A,-737280,0.0,-999.0,85,0.00,,,0.03,0,Wunderground v.1.15,2013-08-25 06:10:00,
2013-08-24 23:15:00,58.3,53.8,29.90,N/A,-737280,0.0,-999.0,85,0.00,,,0.03,0,Wunderground v.1.15,2013-08-25 06:15:00,
2013-08-24 23:19:00,57.8,53.0,29.90,North,10,0.0,0.0,85,0.00,,,0.03,0,weatherlink.com 1.10,2013-08-25 06:19:00,
2013-08-24 23:20:00,58.3,53.8,29.90,N/A,-737280,0.0,-999.0,85,0.00,,,0.03,0,Wunderground v.1.15,2013-08-25 06:20:00,
2013-08-24 23:25:00,57.6,53.4,29.91,North,0,0.0,-999.0,86,0.00,,,0.03,0,Wunderground v.1.15,2013-08-25 06:25:00,
2013-08-24 23:30:00,57.6,53.4,29.91,North,0,0.0,-999.0,86,0.00,,,0.03,0,Wunderground v.1.15,2013-08-25 06:30:00,
2013-08-24 23:34:00,57.2,53.0,29.91,North,10,0.0,1.0,86,0.00,,,0.03,0,weatherlink.com 1.10,2013-08-25 06:34:00,
2013-08-24 23:35:00,57.6,53.4,29.91,North,0,0.0,-999.0,86,0.00,,,0.03,0,Wunderground v.1.15,2013-08-25 06:35:00,
2013-08-24 23:40:00,57.1,53.3,29.91,N/A,-737280,0.0,-999.0,87,0.00,,,0.03,0,Wunderground v.1.15,2013-08-25 06:40:00,
2013-08-24 23:45:00,57.1,53.3,29.91,N/A,-737280,0.0,-999.0,87,0.00,,,0.03,0,Wunderground v.1.15,2013-08-25 06:45:00,
2013-08-24 23:49:00,56.8,53.0,29.91,North,10,0.0,0.0,87,0.00,,,0.03,0,weatherlink.com 1.10,2013-08-25 06:49:00,
2013-08-24 23:50:00,57.1,53.3,29.91,N/A,-737280,0.0,-999.0,87,0.00,,,0.03,0,Wunderground v.1.15,2013-08-25 06:50:00,
2013-08-24 23:55:00,56.7,53.2,29.91,N/A,-737280,0.0,-999.0,88,0.00,,,0.03,0,Wunderground v.1.15,2013-08-25 06:55:00,